Preview of NWS' New Version of Forecast
This preview is not operational and should not be used for support decisions.

Regional Weather Roundup (RWR)

Issued by National Weather Service (NWS)

                            
000
ASUS43 KTOP 231059
RWRKS 

WEATHER ROUNDUP FOR KANSAS
NATIONAL WEATHER SERVICE GOODLAND KS
500 AM CST SAT FEB 23 2019

NOTE:  "FAIR" INDICATES FEW OR NO CLOUDS BELOW 12,000 FEET WITH NO
SIGNIFICANT WEATHER AND/OR OBSTRUCTIONS TO VISIBILITY.

KSZ001>006-013>018-027>032-041>047-231200-
NORTHWEST KANSAS
  
CITY           SKY/WX    TMP DP  RH WIND       PRES   REMARKS
GOODLAND       FOG       30  29  96 NE10      29.70F VSB 1/4 WCI  21  
HAYS           FOG       32  32 100 E12       29.79S VSB 1/4 WCI  23  
HILL CITY      FOG       32  32 100 E6        29.80S VSB 1/4          
RUSSELL        FOG       32  32 100 NE8       29.78F VSB 1/2          
$$

KSZ061>065-074>080-084>089-231200-
SOUTHWEST KANSAS
  
CITY           SKY/WX    TMP DP  RH WIND       PRES   REMARKS
DODGE CITY     FOG       34  32  92 NE13      29.70F VSB 1/2 WCI  25  
GARDEN CITY    MIX PCPN  31  31 100 NE15      29.69F VSB 3/4 WCI  20  
GREAT BEND     MIX PCPN  33  33 100 E8        29.79R FOG              
LIBERAL        LGT RAIN  37  36  96 NE16      29.61F WCI  28          
$$

KSZ066>073-081>083-090>101-231200-
SOUTHEAST KANSAS
  
CITY           SKY/WX    TMP DP  RH WIND       PRES   REMARKS
CHANUTE        CLOUDY    44  42  93 NE5       29.80F FOG              
COFFEYVILLE    FOG       43  43 100 NE5       29.78F VSB 3/4          
HUTCHINSON     CLOUDY    35  35 100 N13       29.74F FOG     WCI  26  
MEDICINE LODGE   N/A     38  38 100 E3        29.75R                  
NEWTON         FOG       35  35 100 NE9       29.76F VSB 1/2          
PARSONS        CLOUDY    43  43 100 NE3       29.80F FOG              
WICHITA INTL   CLOUDY    40  40 100 NE9       29.73F FOG              
WICHITA JABRA  FOG       38  37  97 NE7       29.74F VSB 1/2          
WICHITA MCCONL CLOUDY    39  39 100 N6        29.74F FOG              
WINFIELD       CLOUDY    41  41 100 S5        29.80R FOG              
$$

KSZ007>012-019>026-033>040-048>060-102>105-231200-
NORTHEAST KANSAS
  
CITY           SKY/WX    TMP DP  RH WIND       PRES   REMARKS
CONCORDIA      FOG       32  32 100 NE5       29.82F VSB 1/4          
EMPORIA        FOG       35  35 100 NE5       29.80F VSB 1/2          
LAWRENCE       CLOUDY    35  34  96 E6        29.85F FOG              
MANHATTAN      CLOUDY    35  35 100 NE5       29.84S                  
OLATHE IND     MIX PCPN  35  35 100 NE9       29.85R FOG              
OLATHE EXE     CLOUDY    34  34 100 NE10      29.85R FOG     WCI  26  
SALINA         CLOUDY    34  34 100 NE5       29.81F FOG              
TOPEKA BILLARD LGT RAIN  36  34  92 CALM      29.85R VSB 3/4          
TOPEKA FORBES  CLOUDY    36  34  92 CALM      29.84R FOG              
$$